DW3649 Weather Reports


Display with metric or nautical units.
time (UTC)temp
F
wind
direction
speed
MPH
gust
MPH
rain 1hr
in
rain 24hr
in
rain mn
in
humidity
%
barometer
mb
20260504050021 53 60 1.0 0.0 0.00 0.00 0.00 60 1017.4
20260504044534 52 71 1.0 0.0 0.00 0.00 0.00 62 1017.3
20260504043020 51 69 0.0 0.0 0.00 0.00 0.00 64 1017.2
20260504041515 50 69 0.0 0.0 0.00 0.00 0.00 66 1017.2
20260504040014 49 69 0.0 0.0 0.00 0.00 0.00 66 1017.1
20260504034515 48 69 0.0 0.0 0.00 0.00 0.00 66 1017.0
20260504033012 49 69 0.0 0.0 0.00 0.00 0.00 64 1017.0
20260504031510 49 69 0.0 0.0 0.00 0.00 0.00 64 1016.9
20260504030009 49 69 0.0 0.0 0.00 0.00 0.00 63 1016.9
20260504024516 49 69 0.0 0.0 0.00 0.00 0.00 62 1016.9
20260504023007 50 69 0.0 0.0 0.00 0.00 0.00 62 1016.8
20260504021506 50 69 1.0 0.0 0.00 0.00 0.00 62 1016.8
20260504020012 50 63 1.0 0.0 0.00 0.00 0.00 61 1016.9
20260504014505 50 61 0.0 0.0 0.00 0.00 0.00 61 1017.0
20260504013003 50 61 0.0 0.0 0.00 0.00 0.00 60 1016.8
20260504011502 50 61 0.0 0.0 0.00 0.00 0.00 60 1016.9
20260504010002 50 61 0.0 0.0 0.00 0.00 0.00 59 1016.9
20260504004505 50 61 0.0 0.0 0.00 0.00 0.00 59 1016.9
20260504003100 50 61 1.0 0.0 0.00 0.00 0.00 59 1016.9
20260504001614 51 63 1.0 0.0 0.00 0.00 0.00 58 1016.8
20260504000100 50 40 0.0 0.0 0.00 0.00 0.00 60 1016.9
20260503234558 50 40 0.0 0.0 0.00 0.00 0.00 60 1016.9
20260503233057 50 40 0.0 0.0 0.00 0.00 0.00 60 1017.0
20260503231557 50 40 0.0 0.0 0.00 0.00 0.00 59 1017.1
20260503230056 50 39 0.0 0.0 0.00 0.00 0.00 59 1017.0
20260503224555 51 53 0.0 0.0 0.00 0.00 0.00 59 1016.9
20260503223054 51 59 1.0 0.0 0.00 0.00 0.00 59 1016.8
20260503221552 51 17 0.0 0.0 0.00 0.00 0.00 59 1017.0
20260503220106 51 10 0.0 0.0 0.00 0.00 0.00 58 1017.1
20260503214549 51 323 2.0 0.0 0.00 0.00 0.00 58 1017.1
20260503213049 52 315 2.0 0.0 0.00 0.00 0.00 57 1017.1
20260503211601 52 321 1.0 0.0 0.00 0.00 0.00 57 1017.1
20260503210046 52 300 1.0 0.0 0.00 0.00 0.00 58 1017.2
20260503204547 52 302 2.0 0.0 0.00 0.00 0.04 58 1017.3
20260503203042 52 318 3.0 0.0 0.00 0.00 0.04 58 1017.2
20260503201542 52 327 3.0 0.0 0.00 0.00 0.04 57 1017.3
20260503200041 52 284 4.0 0.0 0.00 0.00 0.04 56 1017.3
20260503194540 53 315 4.0 0.0 0.00 0.00 0.04 56 1017.3
20260503193047 53 291 4.0 0.0 0.00 0.00 0.04 55 1017.2
20260503191539 53 302 4.0 0.0 0.00 0.00 0.04 54 1017.2
20260503190043 53 315 4.0 0.0 0.00 0.00 0.04 54 1017.0
20260503184535 53 355 4.0 0.0 0.00 0.00 0.04 54 1016.9
20260503183039 53 326 3.0 0.0 0.00 0.00 0.04 55 1016.7
20260503181604 53 313 2.0 0.0 0.00 0.00 0.04 55 1016.5
20260503180031 53 336 2.0 0.0 0.00 0.00 0.04 54 1016.3
20260503174529 54 338 3.0 0.0 0.00 0.00 0.04 53 1016.1
20260503173042 54 296 2.0 0.0 0.00 0.00 0.04 52 1015.9
20260503171527 54 303 3.0 0.0 0.00 0.00 0.04 51 1015.9
20260503081558 52 48 2.0 0.0 0.00 0.00 0.04 61 1015.0
20260503071554 48 327 1.0 0.0 0.00 0.00 0.04 75 1014.9